軌道要素
Epoch 2010 May 4.0 TT = JDT 2455320.5
T 2010 Apr. 26.49819 TT MPC
q 4.8426343 (2000.0) P Q
z +0.0000551 Peri. 75.02980 +0.08637435 -0.49858198
+/-0.0000004 Node 59.73685 -0.15559103 -0.86189156
e 0.9997330 Incl. 86.99033 +0.98403806 -0.09251462
From 614 observations 2007 Oct. 20-2012 July 20, mean residual 0".5.
|